| time (UTC) | temp F | wind direction | speed MPH | gust MPH | rain 1hr in | rain 24hr in | rain mn in | humidity % | barometer mb |
| 20260831063501 | 0 | 136 | 0.0 | 2.0 | 0.00 | 0.00 | 0.00 | 1019.2 | |
| 20260831063111 | 0 | 136 | 0.0 | 2.0 | 0.00 | 0.00 | 0.00 | 1019.2 | |
| 20260831062559 | 0 | 136 | 0.0 | 2.0 | 0.00 | 0.00 | 0.00 | 1019.3 | |
| 20260831062058 | 0 | 136 | 1.0 | 2.0 | 0.00 | 0.00 | 0.00 | 1019.3 | |
| 20260831061556 | 0 | 134 | 0.0 | 1.0 | 0.00 | 0.00 | 0.00 | 1019.3 | |
| 20260831061054 | 0 | 134 | 0.0 | 0.0 | 0.00 | 0.00 | 0.00 | 1019.4 | |
| 20260831060553 | 0 | 134 | 0.0 | 0.0 | 0.00 | 0.00 | 0.00 | 1019.5 | |
| 20260831060051 | 0 | 134 | 0.0 | 0.0 | 0.00 | 0.00 | 0.00 | 1019.5 | |
| 20260831055554 | 0 | 134 | 0.0 | 1.0 | 0.00 | 0.00 | 0.00 | 1019.6 | |
| 20260831055048 | 0 | 134 | 0.0 | 2.0 | 0.00 | 0.00 | 0.00 | 1019.6 | |
| 20260831054546 | 0 | 135 | 0.0 | 2.0 | 0.00 | 0.00 | 0.00 | 1019.6 | |
| 20260831054045 | 0 | 135 | 0.0 | 2.0 | 0.00 | 0.00 | 0.00 | 1019.6 | |
| 20260831053543 | 0 | 136 | 0.0 | 1.0 | 0.00 | 0.00 | 0.00 | 1019.7 | |
| 20260831053053 | 0 | 133 | 0.0 | 2.0 | 0.00 | 0.00 | 0.00 | 1019.7 | |
| 20260831052540 | 0 | 130 | 0.0 | 2.0 | 0.00 | 0.00 | 0.00 | 1019.6 | |
| 20260831052042 | 0 | 127 | 0.0 | 0.0 | 0.00 | 0.00 | 0.00 | 1019.7 | |
| 20260831051541 | 0 | 127 | 0.0 | 0.0 | 0.00 | 0.00 | 0.00 | 1019.7 | |
| 20260831051037 | 0 | 127 | 0.0 | 0.0 | 0.00 | 0.00 | 0.00 | 1019.7 | |
| 20260831050535 | 0 | 127 | 0.0 | 1.0 | 0.00 | 0.00 | 0.00 | 1019.8 | |
| 20260831050034 | 0 | 127 | 0.0 | 1.0 | 0.00 | 0.00 | 0.00 | 1019.9 | |
| 20260831045534 | 0 | 130 | 0.0 | 2.0 | 0.00 | 0.00 | 0.00 | 1019.9 | |
| 20260831045031 | 0 | 132 | 0.0 | 2.0 | 0.00 | 0.00 | 0.00 | 1020.0 | |
| 20260831044528 | 0 | 133 | 0.0 | 2.0 | 0.00 | 0.00 | 0.00 | 1020.0 | |
| 20260831044028 | 0 | 129 | 1.0 | 2.0 | 0.00 | 0.00 | 0.00 | 1019.9 | |
| 20260831043526 | 0 | 128 | 0.0 | 2.0 | 0.00 | 0.00 | 0.00 | 1019.9 | |
| 20260831043024 | 0 | 132 | 0.0 | 1.0 | 0.00 | 0.00 | 0.00 | 1020.0 | |
| 20260831042524 | 0 | 132 | 0.0 | 1.0 | 0.00 | 0.00 | 0.00 | 1020.0 | |
| 20260831042022 | 0 | 135 | 0.0 | 1.0 | 0.00 | 0.00 | 0.00 | 1020.0 | |
| 20260831041521 | 0 | 135 | 0.0 | 1.0 | 0.00 | 0.00 | 0.00 | 1020.0 | |
| 20260831041022 | 0 | 111 | 0.0 | 1.0 | 0.00 | 0.00 | 0.00 | 1019.9 | |
| 20260831040519 | 0 | 123 | 0.0 | 0.0 | 0.00 | 0.00 | 0.00 | 1019.8 | |
| 20260831040022 | 0 | 123 | 0.0 | 1.0 | 0.00 | 0.00 | 0.00 | 1019.9 | |
| 20260831035516 | 0 | 123 | 0.0 | 2.0 | 0.00 | 0.00 | 0.00 | 1019.9 | |
| 20260831035015 | 0 | 128 | 1.0 | 2.0 | 0.00 | 0.00 | 0.00 | 1020.0 | |
| 20260831034515 | 0 | 111 | 0.0 | 2.0 | 0.00 | 0.00 | 0.00 | 1020.0 | |
| 20260831034014 | 0 | 126 | 1.0 | 2.0 | 0.00 | 0.00 | 0.00 | 1020.0 | |
| 20260831033515 | 0 | 120 | 0.0 | 1.0 | 0.00 | 0.00 | 0.00 | 1020.1 | |
| 20260831033018 | 0 | 120 | 0.0 | 2.0 | 0.00 | 0.00 | 0.00 | 1020.2 | |
| 20260831032514 | 0 | 120 | 0.0 | 2.0 | 0.00 | 0.00 | 0.00 | 1020.2 | |
| 20260831032015 | 0 | 114 | 0.0 | 3.0 | 0.00 | 0.00 | 0.00 | 1020.2 | |
| 20260831031513 | 0 | 121 | 1.0 | 3.0 | 0.00 | 0.00 | 0.00 | 1020.0 | |
| 20260831031013 | 0 | 136 | 0.0 | 2.0 | 0.00 | 0.00 | 0.00 | 1020.2 | |
| 20260831030514 | 0 | 113 | 0.0 | 0.0 | 0.00 | 0.00 | 0.00 | 1020.2 | |
| 20260831030013 | 0 | 113 | 0.0 | 2.0 | 0.00 | 0.00 | 0.00 | 1020.3 | |
| 20260831025513 | 0 | 103 | 1.0 | 2.0 | 0.00 | 0.00 | 0.00 | 1020.3 | |
| 20260831025013 | 0 | 103 | 0.0 | 2.0 | 0.00 | 0.00 | 0.00 | 1020.2 | |
| 20260831024513 | 0 | 106 | 0.0 | 1.0 | 0.00 | 0.00 | 0.00 | 1020.2 | |
| 20260831024012 | 0 | 111 | 0.0 | 1.0 | 0.00 | 0.00 | 0.00 | 1020.2 | |
| 20260831023516 | 0 | 108 | 0.0 | 1.0 | 0.00 | 0.00 | 0.00 | 1020.3 | |
| 20260831023012 | 0 | 108 | 0.0 | 1.0 | 0.00 | 0.00 | 0.00 | 1020.3 | |
| 20260831022512 | 0 | 102 | 0.0 | 2.0 | 0.00 | 0.00 | 0.00 | 1020.2 | |
| 20260831022012 | 0 | 116 | 0.0 | 2.0 | 0.00 | 0.00 | 0.00 | 1020.2 | |
| 20260831021516 | 0 | 103 | 0.0 | 1.0 | 0.00 | 0.00 | 0.00 | 1020.2 | |
| 20260831021012 | 0 | 129 | 0.0 | 0.0 | 0.00 | 0.00 | 0.00 | 1020.3 | |
| 20260831020512 | 0 | 129 | 0.0 | 2.0 | 0.00 | 0.00 | 0.00 | 1020.3 | |
| 20260831020011 | 0 | 129 | 0.0 | 2.0 | 0.00 | 0.00 | 0.00 | 1020.3 | |
| 20260831015511 | 0 | 109 | 1.0 | 2.0 | 0.00 | 0.00 | 0.00 | 1020.3 | |
| 20260831015010 | 0 | 104 | 0.0 | 2.0 | 0.00 | 0.00 | 0.00 | 1020.4 | |
| 20260831014510 | 0 | 126 | 0.0 | 2.0 | 0.00 | 0.00 | 0.00 | 1020.4 | |
| 20260831014011 | 0 | 106 | 0.0 | 2.0 | 0.00 | 0.00 | 0.00 | 1020.4 | |
| 20260831013510 | 0 | 106 | 0.0 | 2.0 | 0.00 | 0.00 | 0.00 | 1020.4 | |
| 20260831013010 | 0 | 96 | 0.0 | 1.0 | 0.00 | 0.00 | 0.00 | 1020.3 | |
| 20260831012611 | 0 | 104 | 0.0 | 1.0 | 0.00 | 0.00 | 0.00 | 1020.3 | |
| 20260831012011 | 0 | 94 | 0.0 | 1.0 | 0.00 | 0.00 | 0.00 | 1020.4 | |
| 20260831011516 | 0 | 113 | 0.0 | 1.0 | 0.00 | 0.00 | 0.00 | 1020.4 | |
| 20260831011009 | 0 | 88 | 0.0 | 1.0 | 0.00 | 0.00 | 0.00 | 1020.3 | |
| 20260831010509 | 0 | 120 | 0.0 | 1.0 | 0.00 | 0.00 | 0.00 | 1020.3 | |
| 20260831010009 | 0 | 119 | 0.0 | 2.0 | 0.00 | 0.00 | 0.00 | 1020.1 | |
| 20260831005509 | 0 | 124 | 1.0 | 2.0 | 0.00 | 0.00 | 0.00 | 1020.0 | |
| 20260831005008 | 0 | 110 | 0.0 | 2.0 | 0.00 | 0.00 | 0.00 | 1019.9 | |
| 20260831004508 | 0 | 106 | 0.0 | 2.0 | 0.00 | 0.00 | 0.00 | 1019.9 | |
| 20260831004008 | 0 | 98 | 0.0 | 2.0 | 0.00 | 0.00 | 0.00 | 1019.8 | |
| 20260831003507 | 0 | 134 | 0.0 | 2.0 | 0.00 | 0.00 | 0.00 | 1019.9 | |
| 20260831003005 | 0 | 111 | 0.0 | 2.0 | 0.00 | 0.00 | 0.00 | 1019.7 | |
| 20260831002504 | 0 | 111 | 0.0 | 2.0 | 0.00 | 0.00 | 0.00 | 1019.6 | |
| 20260831002003 | 0 | 120 | 0.0 | 1.0 | 0.00 | 0.00 | 0.00 | 1019.5 | |
| 20260831001504 | 0 | 118 | 0.0 | 1.0 | 0.00 | 0.00 | 0.00 | 1019.5 | |
| 20260831001059 | 0 | 107 | 0.0 | 1.0 | 0.00 | 0.00 | 0.00 | 1019.3 | |
| 20260831000558 | 0 | 109 | 0.0 | 1.0 | 0.00 | 0.00 | 0.00 | 1019.3 | |
| 20260831000057 | 0 | 106 | 0.0 | 2.0 | 0.00 | 0.00 | 0.00 | 1019.4 | |
| 20260830235555 | 0 | 108 | 0.0 | 2.0 | 0.00 | 0.00 | 0.00 | 1019.4 | |
| 20260830235058 | 0 | 117 | 0.0 | 1.0 | 0.00 | 0.00 | 0.00 | 1019.3 | |
| 20260830234551 | 0 | 109 | 0.0 | 1.0 | 0.00 | 0.00 | 0.00 | 1019.3 | |
| 20260830234054 | 0 | 92 | 0.0 | 2.0 | 0.00 | 0.00 | 0.00 | 1019.4 | |
| 20260830233549 | 0 | 123 | 0.0 | 2.0 | 0.00 | 0.00 | 0.00 | 1019.4 | |
| 20260830233059 | 0 | 98 | 0.0 | 1.0 | 0.00 | 0.00 | 0.00 | 1019.5 | |
| 20260830232547 | 0 | 141 | 0.0 | 2.0 | 0.00 | 0.00 | 0.00 | 1019.5 | |
| 20260830232045 | 0 | 105 | 0.0 | 2.0 | 0.00 | 0.00 | 0.00 | 1019.6 | |
| 20260830231545 | 0 | 105 | 0.0 | 2.0 | 0.00 | 0.00 | 0.00 | 1019.6 | |
| 20260830231043 | 0 | 105 | 0.0 | 2.0 | 0.00 | 0.00 | 0.00 | 1019.5 | |
| 20260830230542 | 0 | 94 | 0.0 | 1.0 | 0.00 | 0.00 | 0.00 | 1019.5 | |
| 20260830230039 | 0 | 101 | 0.0 | 2.0 | 0.00 | 0.00 | 0.00 | 1019.4 | |
| 20260830225538 | 0 | 98 | 0.0 | 2.0 | 0.00 | 0.00 | 0.00 | 1019.3 | |
| 20260830225035 | 0 | 116 | 0.0 | 3.0 | 0.00 | 0.00 | 0.00 | 1019.5 | |
| 20260830224635 | 0 | 115 | 0.0 | 3.0 | 0.00 | 0.00 | 0.00 | 1019.4 | |
| 20260830224033 | 0 | 117 | 0.0 | 2.0 | 0.00 | 0.00 | 0.00 | 1019.5 | |
| 20260830223531 | 0 | 129 | 0.0 | 2.0 | 0.00 | 0.00 | 0.00 | 1019.5 | |
| 20260830223032 | 0 | 119 | 0.0 | 2.0 | 0.00 | 0.00 | 0.00 | 1019.4 | |
| 20260830222528 | 0 | 141 | 0.0 | 2.0 | 0.00 | 0.00 | 0.00 | 1019.5 | |
| 20260830222026 | 0 | 153 | 0.0 | 3.0 | 0.00 | 0.00 | 0.00 | 1019.5 | |
| 20260830221525 | 0 | 119 | 1.0 | 3.0 | 0.00 | 0.00 | 0.00 | 1019.5 | |
| 20260830221024 | 0 | 117 | 1.0 | 3.0 | 0.00 | 0.00 | 0.00 | 1019.6 | |
| 20260830220522 | 0 | 40 | 0.0 | 2.0 | 0.00 | 0.00 | 0.00 | 1019.5 | |
| 20260830220024 | 0 | 147 | 0.0 | 2.0 | 0.00 | 0.00 | 0.00 | 1020.1 | |
| 20260830215520 | 0 | 95 | 0.0 | 3.0 | 0.00 | 0.00 | 0.00 | 1019.5 | |
| 20260830215020 | 0 | 133 | 1.0 | 3.0 | 0.00 | 0.00 | 0.00 | 1019.5 | |
| 20260830214516 | 0 | 142 | 0.0 | 3.0 | 0.00 | 0.00 | 0.00 | 1019.5 | |
| 20260830214016 | 0 | 124 | 1.0 | 3.0 | 0.00 | 0.00 | 0.00 | 1019.4 | |
| 20260830213513 | 0 | 127 | 1.0 | 3.0 | 0.00 | 0.00 | 0.00 | 1019.4 | |
| 20260830213012 | 0 | 129 | 1.0 | 6.0 | 0.00 | 0.00 | 0.00 | 1019.4 | |
| 20260830212511 | 0 | 113 | 2.0 | 6.0 | 0.00 | 0.00 | 0.00 | 1019.4 | |
| 20260830212009 | 0 | 56 | 1.0 | 4.0 | 0.00 | 0.00 | 0.00 | 1019.3 | |
| 20260830211508 | 0 | 167 | 1.0 | 5.0 | 0.00 | 0.00 | 0.00 | 1019.3 | |
| 20260830211006 | 0 | 111 | 1.0 | 6.0 | 0.00 | 0.00 | 0.00 | 1019.2 | |
| 20260830210505 | 0 | 114 | 1.0 | 4.0 | 0.00 | 0.00 | 0.00 | 1019.2 | |
| 20260830210003 | 0 | 138 | 1.0 | 4.0 | 0.00 | 0.00 | 0.00 | 1019.2 | |
| 20260830205503 | 0 | 169 | 1.0 | 5.0 | 0.00 | 0.00 | 0.00 | 1019.2 | |
| 20260830205059 | 0 | 119 | 0.0 | 5.0 | 0.00 | 0.00 | 0.00 | 1019.3 | |
| 20260830204559 | 0 | 136 | 1.0 | 5.0 | 0.00 | 0.00 | 0.00 | 1019.2 | |
| 20260830204057 | 0 | 147 | 1.0 | 3.0 | 0.00 | 0.00 | 0.00 | 1019.2 | |
| 20260830203555 | 0 | 327 | 1.0 | 5.0 | 0.00 | 0.00 | 0.00 | 1019.3 | |
| 20260830203053 | 0 | 132 | 1.0 | 6.0 | 0.00 | 0.00 | 0.00 | 1019.4 | |
| 20260830202552 | 0 | 119 | 1.0 | 3.0 | 0.00 | 0.00 | 0.00 | 1019.5 | |
| 20260830202051 | 0 | 102 | 1.0 | 3.0 | 0.00 | 0.00 | 0.00 | 1019.6 | |
| 20260830201550 | 0 | 134 | 0.0 | 5.0 | 0.00 | 0.00 | 0.00 | 1019.6 | |
| 20260830201047 | 0 | 119 | 1.0 | 5.0 | 0.00 | 0.00 | 0.00 | 1019.5 | |
| 20260830200546 | 0 | 129 | 1.0 | 3.0 | 0.00 | 0.00 | 0.00 | 1019.6 | |
| 20260830200045 | 0 | 133 | 1.0 | 3.0 | 0.00 | 0.00 | 0.00 | 1019.6 | |
| 20260830195546 | 0 | 129 | 1.0 | 3.0 | 0.00 | 0.00 | 0.00 | 1019.8 | |
| 20260830195041 | 0 | 122 | 1.0 | 3.0 | 0.00 | 0.00 | 0.00 | 1019.8 | |
| 20260830194553 | 0 | 120 | 1.0 | 3.0 | 0.00 | 0.00 | 0.00 | 1020.0 | |
| 20260830194042 | 0 | 163 | 1.0 | 3.0 | 0.00 | 0.00 | 0.00 | 1020.0 | |
| 20260830193537 | 0 | 107 | 1.0 | 2.0 | 0.00 | 0.00 | 0.00 | 1020.2 | |
| 20260830193036 | 0 | 123 | 1.0 | 2.0 | 0.00 | 0.00 | 0.00 | 1020.4 | |
| 20260830192536 | 0 | 144 | 1.0 | 2.0 | 0.00 | 0.00 | 0.00 | 1020.6 | |
| 20260830192032 | 0 | 94 | 1.0 | 2.0 | 0.00 | 0.00 | 0.00 | 1020.8 | |
| 20260830191531 | 0 | 88 | 0.0 | 3.0 | 0.00 | 0.00 | 0.00 | 1020.7 | |
| 20260830191030 | 0 | 104 | 1.0 | 6.0 | 0.00 | 0.00 | 0.00 | 1020.8 | |
| 20260830190528 | 0 | 117 | 1.0 | 6.0 | 0.00 | 0.00 | 0.00 | 1020.9 | |
| 20260830190027 | 0 | 103 | 0.0 | 4.0 | 0.00 | 0.00 | 0.00 | 1020.8 | |
| 20260830185525 | 0 | 125 | 0.0 | 4.0 | 0.00 | 0.00 | 0.00 | 1020.9 | |
| 20260830185027 | 0 | 128 | 1.0 | 3.0 | 0.00 | 0.00 | 0.00 | 1021.0 | |
| 20260830184522 | 0 | 142 | 1.0 | 2.0 | 0.00 | 0.00 | 0.00 | 1021.0 | |
| 20260830184020 | 0 | 70 | 0.0 | 3.0 | 0.00 | 0.00 | 0.00 | 1021.1 | |
| 20260830183519 | 0 | 165 | 0.0 | 4.0 | 0.00 | 0.00 | 0.00 | 1021.3 | |
| 20260830183031 | 0 | 134 | 2.0 | 4.0 | 0.00 | 0.00 | 0.00 | 1021.3 | |
| 20260830182518 | 0 | 117 | 1.0 | 4.0 | 0.00 | 0.00 | 0.00 | 1021.5 | |
| 20260830182015 | 0 | 16 | 1.0 | 3.0 | 0.00 | 0.00 | 0.00 | 1021.5 | |
| 20260830181515 | 0 | 355 | 1.0 | 3.0 | 0.00 | 0.00 | 0.00 | 1021.7 | |
| 20260830181012 | 0 | 91 | 1.0 | 3.0 | 0.00 | 0.00 | 0.00 | 1021.7 | |
| 20260830180510 | 0 | 119 | 1.0 | 2.0 | 0.00 | 0.00 | 0.00 | 1021.8 | |
| 20260830180013 | 0 | 136 | 0.0 | 2.0 | 0.00 | 0.00 | 0.00 | 1021.8 | |
| 20260830175508 | 0 | 132 | 0.0 | 2.0 | 0.00 | 0.00 | 0.00 | 1022.0 | |
| 20260830175005 | 0 | 124 | 0.0 | 2.0 | 0.00 | 0.00 | 0.00 | 1022.1 | |
| 20260830174511 | 0 | 168 | 1.0 | 3.0 | 0.00 | 0.00 | 0.00 | 1022.1 | |
| 20260830174002 | 0 | 130 | 1.0 | 3.0 | 0.00 | 0.00 | 0.00 | 1022.1 | |
| 20260830173502 | 0 | 155 | 0.0 | 3.0 | 0.00 | 0.00 | 0.00 | 1022.1 | |
| 20260830173104 | 0 | 130 | 1.0 | 3.0 | 0.00 | 0.00 | 0.00 | 1022.2 | |
| 20260830172559 | 0 | 133 | 1.0 | 6.0 | 0.00 | 0.00 | 0.00 | 1022.2 | |
| 20260830172057 | 0 | 143 | 0.0 | 6.0 | 0.00 | 0.00 | 0.00 | 1022.3 | |
| 20260830171600 | 0 | 144 | 1.0 | 3.0 | 0.00 | 0.00 | 0.00 | 1022.3 | |
| 20260830171059 | 0 | 158 | 0.0 | 4.0 | 0.00 | 0.00 | 0.00 | 1022.3 | |
| 20260830170552 | 0 | 156 | 1.0 | 4.0 | 0.00 | 0.00 | 0.00 | 1022.4 | |
| 20260830170052 | 0 | 105 | 1.0 | 3.0 | 0.00 | 0.00 | 0.00 | 1022.4 | |
| 20260830165554 | 0 | 177 | 1.0 | 3.0 | 0.00 | 0.00 | 0.00 | 1022.4 | |
| 20260830165049 | 0 | 150 | 0.0 | 4.0 | 0.00 | 0.00 | 0.00 | 1022.5 | |
| 20260830164548 | 0 | 148 | 1.0 | 4.0 | 0.00 | 0.00 | 0.00 | 1022.4 | |
| 20260830164045 | 0 | 134 | 0.0 | 2.0 | 0.00 | 0.00 | 0.00 | 1022.5 | |
| 20260830163544 | 0 | 144 | 0.0 | 3.0 | 0.00 | 0.00 | 0.00 | 1022.6 | |
| 20260830163053 | 0 | 149 | 1.0 | 3.0 | 0.00 | 0.00 | 0.00 | 1022.7 | |
| 20260830162541 | 0 | 129 | 1.0 | 3.0 | 0.00 | 0.00 | 0.00 | 1022.7 | |
| 20260830162040 | 0 | 136 | 0.0 | 2.0 | 0.00 | 0.00 | 0.00 | 1022.6 | |
| 20260830161541 | 0 | 121 | 0.0 | 2.0 | 0.00 | 0.00 | 0.00 | 1022.7 | |
| 20260830161039 | 0 | 104 | 0.0 | 4.0 | 0.00 | 0.00 | 0.00 | 1022.7 | |
| 20260830160535 | 0 | 104 | 0.0 | 4.0 | 0.00 | 0.00 | 0.00 | 1022.9 | |
| 20260830160053 | 0 | 142 | 0.0 | 2.0 | 0.00 | 0.00 | 0.00 | 1022.9 | |
| 20260830155533 | 0 | 142 | 0.0 | 3.0 | 0.00 | 0.00 | 0.00 | 1022.9 | |
| 20260830155030 | 0 | 145 | 0.0 | 3.0 | 0.00 | 0.00 | 0.00 | 1023.0 | |
| 20260830154530 | 0 | 161 | 0.0 | 2.0 | 0.00 | 0.00 | 0.00 | 1023.0 | |
| 20260830154032 | 0 | 155 | 0.0 | 2.0 | 0.00 | 0.00 | 0.00 | 1023.0 | |
| 20260830153527 | 0 | 155 | 0.0 | 3.0 | 0.00 | 0.00 | 0.00 | 1023.0 | |
| 20260830153024 | 0 | 178 | 0.0 | 2.0 | 0.00 | 0.00 | 0.00 | 1023.1 | |
| 20260830152525 | 0 | 136 | 0.0 | 3.0 | 0.00 | 0.00 | 0.00 | 1023.0 | |
| 20260830152022 | 0 | 138 | 0.0 | 6.0 | 0.00 | 0.00 | 0.00 | 1023.2 | |
| 20260830151521 | 0 | 129 | 1.0 | 6.0 | 0.00 | 0.00 | 0.00 | 1023.0 | |
| 20260830151020 | 0 | 166 | 1.0 | 4.0 | 0.00 | 0.00 | 0.00 | 1023.0 | |
| 20260830150519 | 0 | 102 | 1.0 | 5.0 | 0.00 | 0.00 | 0.00 | 1023.0 | |
| 20260830150019 | 0 | 139 | 0.0 | 3.0 | 0.00 | 0.00 | 0.00 | 1023.2 | |
| 20260830145516 | 0 | 128 | 1.0 | 3.0 | 0.00 | 0.00 | 0.00 | 1023.2 | |
| 20260830145012 | 0 | 130 | 1.0 | 4.0 | 0.00 | 0.00 | 0.00 | 1023.2 | |
| 20260830144511 | 0 | 132 | 0.0 | 2.0 | 0.00 | 0.00 | 0.00 | 1023.3 | |
| 20260830144009 | 0 | 136 | 0.0 | 4.0 | 0.00 | 0.00 | 0.00 | 1023.4 | |
| 20260830143508 | 0 | 127 | 1.0 | 4.0 | 0.00 | 0.00 | 0.00 | 1023.3 | |
| 20260830143013 | 0 | 143 | 1.0 | 7.0 | 0.00 | 0.00 | 0.00 | 1023.4 | |
| 20260830142510 | 0 | 167 | 1.0 | 7.0 | 0.00 | 0.00 | 0.00 | 1023.4 | |
| 20260830142004 | 0 | 139 | 0.0 | 2.0 | 0.00 | 0.00 | 0.00 | 1023.5 | |
| 20260830141502 | 0 | 141 | 0.0 | 6.0 | 0.00 | 0.00 | 0.00 | 1023.5 | |
| 20260830141002 | 0 | 146 | 1.0 | 6.0 | 0.00 | 0.00 | 0.00 | 1023.6 | |
| 20260830140559 | 0 | 124 | 0.0 | 2.0 | 0.00 | 0.00 | 0.00 | 1023.4 | |
| 20260830140058 | 0 | 135 | 0.0 | 2.0 | 0.00 | 0.00 | 0.00 | 1023.3 | |
| 20260830135557 | 0 | 144 | 0.0 | 5.0 | 0.00 | 0.00 | 0.00 | 1023.4 | |
| 20260830135059 | 0 | 147 | 0.0 | 3.0 | 0.00 | 0.00 | 0.00 | 1023.6 | |
| 20260830134602 | 0 | 144 | 0.0 | 5.0 | 0.00 | 0.00 | 0.00 | 1023.8 | |
| 20260830134052 | 0 | 155 | 1.0 | 5.0 | 0.00 | 0.00 | 0.00 | 1023.8 | |
| 20260830133550 | 0 | 143 | 0.0 | 2.0 | 0.00 | 0.00 | 0.00 | 1023.8 | |
| 20260830133049 | 0 | 142 | 0.0 | 2.0 | 0.00 | 0.00 | 0.00 | 1023.8 | |
| 20260830132547 | 0 | 142 | 0.0 | 2.0 | 0.00 | 0.00 | 0.00 | 1023.9 | |
| 20260830132046 | 0 | 123 | 0.0 | 2.0 | 0.00 | 0.00 | 0.00 | 1024.0 | |
| 20260830131552 | 0 | 123 | 0.0 | 2.0 | 0.00 | 0.00 | 0.00 | 1024.0 | |
| 20260830131044 | 0 | 123 | 0.0 | 2.0 | 0.00 | 0.00 | 0.00 | 1024.2 | |
| 20260830130542 | 0 | 120 | 0.0 | 1.0 | 0.00 | 0.00 | 0.00 | 1024.2 | |
| 20260830130056 | 0 | 121 | 0.0 | 1.0 | 0.00 | 0.00 | 0.00 | 1024.1 | |
| 20260830125544 | 0 | 123 | 0.0 | 0.0 | 0.00 | 0.00 | 0.00 | 1024.1 | |
| 20260830125038 | 0 | 123 | 0.0 | 0.0 | 0.00 | 0.00 | 0.00 | 1024.2 | |
| 20260830124542 | 0 | 123 | 0.0 | 2.0 | 0.00 | 0.00 | 0.00 | 1024.2 | |
| 20260830124035 | 0 | 123 | 0.0 | 2.0 | 0.00 | 0.00 | 0.00 | 1024.3 | |
| 20260830123537 | 0 | 123 | 0.0 | 1.0 | 0.00 | 0.00 | 0.00 | 1024.2 | |
| 20260830123042 | 0 | 123 | 0.0 | 2.0 | 0.00 | 0.00 | 0.00 | 1024.3 | |
| 20260830122533 | 0 | 126 | 0.0 | 2.0 | 0.00 | 0.00 | 0.00 | 1024.2 | |
| 20260830122036 | 0 | 124 | 0.0 | 2.0 | 0.00 | 0.00 | 0.00 | 1024.2 | |
| 20260830121539 | 0 | 123 | 0.0 | 2.0 | 0.00 | 0.00 | 0.00 | 1024.2 | |
| 20260830121028 | 0 | 123 | 0.0 | 2.0 | 0.00 | 0.00 | 0.00 | 1024.1 | |
| 20260830120526 | 0 | 119 | 0.0 | 1.0 | 0.00 | 0.00 | 0.00 | 1024.2 | |
| 20260830120026 | 0 | 111 | 0.0 | 0.0 | 0.00 | 0.00 | 0.00 | 1024.1 | |
| 20260830115525 | 0 | 111 | 0.0 | 0.0 | 0.00 | 0.00 | 0.00 | 1024.1 | |
| 20260830115024 | 0 | 111 | 0.0 | 0.0 | 0.00 | 0.00 | 0.00 | 1024.1 | |
| 20260830114520 | 0 | 111 | 0.0 | 0.0 | 0.00 | 0.00 | 0.00 | 1024.1 | |
| 20260830114020 | 0 | 111 | 0.0 | 0.0 | 0.00 | 0.00 | 0.00 | 1024.1 | |
| 20260830113517 | 0 | 111 | 0.0 | 0.0 | 0.00 | 0.00 | 0.00 | 1024.0 | |
| 20260830113015 | 0 | 111 | 0.0 | 1.0 | 0.00 | 0.00 | 0.00 | 1023.9 | |
| 20260830112515 | 0 | 111 | 0.0 | 1.0 | 0.00 | 0.00 | 0.00 | 1024.0 | |
| 20260830112017 | 0 | 102 | 0.0 | 1.0 | 0.00 | 0.00 | 0.00 | 1023.9 | |
| 20260830111513 | 0 | 107 | 0.0 | 1.0 | 0.00 | 0.00 | 0.00 | 1023.9 | |
| 20260830111010 | 0 | 101 | 0.0 | 1.0 | 0.00 | 0.00 | 0.00 | 1023.9 | |
| 20260830110509 | 0 | 98 | 0.0 | 0.0 | 0.00 | 0.00 | 0.00 | 1023.9 | |
| 20260830110007 | 0 | 98 | 0.0 | 0.0 | 0.00 | 0.00 | 0.00 | 1023.7 | |
| 20260830105505 | 0 | 98 | 0.0 | 0.0 | 0.00 | 0.00 | 0.00 | 1023.8 | |
| 20260830105105 | 0 | 98 | 0.0 | 0.0 | 0.00 | 0.00 | 0.00 | 1023.7 | |
| 20260830104504 | 0 | 98 | 0.0 | 0.0 | 0.00 | 0.00 | 0.00 | 1023.7 | |
| 20260830104001 | 0 | 98 | 0.0 | 0.0 | 0.00 | 0.00 | 0.00 | 1023.5 | |
| 20260830103602 | 0 | 98 | 0.0 | 1.0 | 0.00 | 0.00 | 0.00 | 1023.5 | |
| 20260830103059 | 0 | 98 | 0.0 | 1.0 | 0.00 | 0.00 | 0.00 | 1023.6 | |
| 20260830102556 | 0 | 101 | 0.0 | 1.0 | 0.00 | 0.00 | 0.00 | 1023.6 | |
| 20260830102056 | 0 | 117 | 0.0 | 1.0 | 0.00 | 0.00 | 0.00 | 1023.3 | |
| 20260830101554 | 0 | 117 | 0.0 | 1.0 | 0.00 | 0.00 | 0.00 | 1023.3 | |
| 20260830101053 | 0 | 126 | 0.0 | 1.0 | 0.00 | 0.00 | 0.00 | 1023.3 | |
| 20260830100551 | 0 | 126 | 0.0 | 0.0 | 0.00 | 0.00 | 0.00 | 1023.2 | |
| 20260830100052 | 0 | 126 | 0.0 | 0.0 | 0.00 | 0.00 | 0.00 | 1023.2 | |
| 20260830095552 | 0 | 126 | 0.0 | 0.0 | 0.00 | 0.00 | 0.00 | 1023.2 | |
| 20260830095049 | 0 | 126 | 0.0 | 0.0 | 0.00 | 0.00 | 0.00 | 1023.2 | |
| 20260830094547 | 0 | 126 | 0.0 | 0.0 | 0.00 | 0.00 | 0.00 | 1023.2 | |
| 20260830094045 | 0 | 126 | 0.0 | 0.0 | 0.00 | 0.00 | 0.00 | 1023.2 | |
| 20260830093544 | 0 | 126 | 0.0 | 1.0 | 0.00 | 0.00 | 0.00 | 1023.2 | |
| 20260830093045 | 0 | 126 | 0.0 | 1.0 | 0.00 | 0.00 | 0.00 | 1023.0 | |
| 20260830092542 | 0 | 129 | 0.0 | 1.0 | 0.00 | 0.00 | 0.00 | 1023.0 | |
| 20260830092039 | 0 | 131 | 0.0 | 2.0 | 0.00 | 0.00 | 0.00 | 1023.1 | |
| 20260830091537 | 0 | 124 | 0.0 | 2.0 | 0.00 | 0.00 | 0.00 | 1023.2 | |
| 20260830091038 | 0 | 120 | 0.0 | 0.0 | 0.00 | 0.00 | 0.00 | 1023.1 | |
| 20260830090533 | 0 | 123 | 0.0 | 0.0 | 0.00 | 0.00 | 0.00 | 1023.1 | |
| 20260830090043 | 0 | 123 | 0.0 | 0.0 | 0.00 | 0.00 | 0.00 | 1023.1 | |
| 20260830085530 | 0 | 123 | 0.0 | 0.0 | 0.00 | 0.00 | 0.00 | 1023.2 | |
| 20260830085029 | 0 | 123 | 0.0 | 0.0 | 0.00 | 0.00 | 0.00 | 1023.2 | |
| 20260830084527 | 0 | 123 | 0.0 | 0.0 | 0.00 | 0.00 | 0.00 | 1023.2 | |
| 20260830084026 | 0 | 123 | 0.0 | 0.0 | 0.00 | 0.00 | 0.00 | 1023.2 | |
| 20260830083524 | 0 | 123 | 0.0 | 0.0 | 0.00 | 0.00 | 0.00 | 1023.2 | |
| 20260830083023 | 0 | 123 | 0.0 | 0.0 | 0.00 | 0.00 | 0.00 | 1023.2 | |
| 20260830082527 | 0 | 123 | 0.0 | 0.0 | 0.00 | 0.00 | 0.00 | 1023.3 | |
| 20260830082020 | 0 | 123 | 0.0 | 0.0 | 0.00 | 0.00 | 0.00 | 1023.5 | |
| 20260830081518 | 0 | 123 | 0.0 | 0.0 | 0.00 | 0.00 | 0.00 | 1023.4 | |
| 20260830081017 | 0 | 123 | 0.0 | 0.0 | 0.00 | 0.00 | 0.00 | 1023.5 | |
| 20260830080517 | 0 | 123 | 0.0 | 0.0 | 0.00 | 0.00 | 0.00 | 1023.4 | |
| 20260830080015 | 0 | 123 | 0.0 | 1.0 | 0.00 | 0.00 | 0.00 | 1023.4 | |
| 20260830075516 | 0 | 123 | 0.0 | 1.0 | 0.00 | 0.00 | 0.00 | 1023.4 | |
| 20260830075011 | 0 | 107 | 0.0 | 1.0 | 0.00 | 0.00 | 0.00 | 1023.3 | |
| 20260830074509 | 0 | 107 | 0.0 | 1.0 | 0.00 | 0.00 | 0.00 | 1023.3 | |
| 20260830074008 | 0 | 106 | 0.0 | 1.0 | 0.00 | 0.00 | 0.00 | 1023.4 | |
| 20260830073507 | 0 | 106 | 0.0 | 1.0 | 0.00 | 0.00 | 0.00 | 1023.4 | |
| 20260830073008 | 0 | 106 | 0.0 | 0.0 | 0.00 | 0.00 | 0.00 | 1023.4 | |
| 20260830072504 | 0 | 106 | 0.0 | 0.0 | 0.00 | 0.00 | 0.00 | 1023.3 | |
| 20260830072003 | 0 | 106 | 0.0 | 0.0 | 0.00 | 0.00 | 0.00 | 1023.3 | |
| 20260830071501 | 0 | 106 | 0.0 | 0.0 | 0.00 | 0.00 | 0.00 | 1023.3 | |
| 20260830070557 | 0 | 106 | 0.0 | 0.0 | 0.00 | 0.00 | 0.00 | 1023.5 | |
| 20260830065556 | 0 | 106 | 0.0 | 0.0 | 0.00 | 0.00 | 0.00 | 1023.5 | |
| 20260830065056 | 0 | 106 | 0.0 | 0.0 | 0.00 | 0.00 | 0.00 | 1023.6 | |
| 20260830064552 | 0 | 106 | 0.0 | 1.0 | 0.00 | 0.00 | 0.00 | 1023.6 | |
| 20260830064050 | 0 | 106 | 0.0 | 1.0 | 0.00 | 0.00 | 0.00 | 1023.7 |